Weather History for Jacksonville, FL

Change the Weather History Date:

Sunday, November 11, 2012

  Actual Average Record
Temperature  
Mean Temperature 65 °F 63 °F  
Max Temperature 78 °F 75 °F 87 °F (1986)
Min Temperature 52 °F 52 °F 35 °F (1977)
Degree Days  
Heating Degree Days 0 4  
Month to date heating degree days 65 35  
Since 1 July heating degree days 97 63  
Cooling Degree Days 0 2  
Month to date cooling degree days 7 30  
Year to date cooling degree days 2736 2613  
Growing Degree Days 16 (Base 50)    
Moisture  
Dew Point 58 °F    
Average Humidity 74    
Maximum Humidity 100    
Minimum Humidity 47    
Precipitation  
Precipitation 0.00 in 0.07 in 2.79 in (1947)
Month to date precipitation 0.17 0.82  
Year to date precipitation 51.00 48.30  
Snow  
Snow 0.00 in 0.00 in 0.00 in (2002)
Month to date snowfall 0.0 0.0  
Since 1 July snowfall 0.0 0.0  
Since 1 September snowfall 0.0 0.0  
Snow Depth 0.00 in    
Sea Level Pressure  
Sea Level Pressure 30.32 in    
Wind  
Wind Speed 6 mph (ENE)    
Max Wind Speed 17 mph    
Max Gust Speed 23 mph    
Visibility 9 miles    
Events      
T = Trace of Precipitation, MM = Missing Value Source: NWS Daily Summary

Daily Weather History Graph

Daily Weather History Graph

Search for Another Location

Airport:

Trip Planner

Search our weather history database for the weather conditions in past years. The results will help you decide how hot, cold, wet, or windy it might be!

Date:

Astronomy

Nov. 11, 2012 Rise Set
Actual Time 6:49 AM EST 5:31 PM EST
Civil Twilight 6:24 AM EST 5:56 PM EST
Nautical Twilight 5:55 AM EST 6:25 PM EST
Astronomical Twilight 5:27 AM EST 6:54 PM EST
Moon 4:10 AM EST (11/11) 3:47 PM EST (11/11)
Length of Visible Light 11h 32m
Length of Day
10h 41m
Waning Crescent, 7% of the Moon is Illuminated
Nov 11
Waning Crescent
Nov 13
New
Nov 20
First Quarter
Nov 28
Full
Dec 6
Last Quarter

Hourly Weather History & Observations

Time (EST) Temp. Dew Point Humidity Pressure Visibility Wind Dir Wind Speed Gust Speed Precip Events Conditions
12:56 AM 57.0 °F 55.9 °F 96% 30.32 in 8.0 mi Calm Calm - N/A   Mostly Cloudy
1:56 AM 57.9 °F 55.9 °F 93% 30.31 in 8.0 mi Calm Calm - N/A   Overcast
2:56 AM 57.0 °F 55.0 °F 93% 30.31 in 8.0 mi Calm Calm - N/A   Scattered Clouds
3:56 AM 54.0 °F 54.0 °F 100% 30.30 in 5.0 mi NE 3.5 mph - N/A   Mostly Cloudy
4:56 AM 55.0 °F 54.0 °F 96% 30.30 in 5.0 mi Calm Calm - N/A   Scattered Clouds
5:56 AM 57.0 °F 55.0 °F 93% 30.32 in 6.0 mi Calm Calm - N/A   Mostly Cloudy
6:56 AM 55.0 °F 54.0 °F 96% 30.32 in 6.0 mi North 3.5 mph - N/A   Scattered Clouds
7:56 AM 62.1 °F 59.0 °F 90% 30.34 in 10.0 mi Calm Calm - N/A   Scattered Clouds
8:56 AM 68.0 °F 60.1 °F 76% 30.36 in 10.0 mi NE 6.9 mph - N/A   Scattered Clouds
9:56 AM 73.9 °F 60.1 °F 62% 30.36 in 10.0 mi ENE 11.5 mph - N/A   Scattered Clouds
10:56 AM 75.9 °F 59.0 °F 56% 30.35 in 10.0 mi ENE 9.2 mph 19.6 mph N/A   Scattered Clouds
11:56 AM 73.0 °F 61.0 °F 66% 30.35 in 10.0 mi East 12.7 mph - N/A   Mostly Cloudy
12:56 PM 73.9 °F 61.0 °F 64% 30.32 in 10.0 mi East 13.8 mph - N/A   Mostly Cloudy
1:56 PM 77.0 °F 55.9 °F 48% 30.31 in 10.0 mi ESE 12.7 mph - N/A   Scattered Clouds
2:56 PM 77.0 °F 55.0 °F 47% 30.30 in 10.0 mi ESE 12.7 mph 20.7 mph N/A   Partly Cloudy
3:56 PM 75.9 °F 57.0 °F 52% 30.30 in 10.0 mi ESE 12.7 mph - N/A   Partly Cloudy
4:56 PM 72.0 °F 60.1 °F 66% 30.30 in 10.0 mi East 9.2 mph - N/A   Scattered Clouds
5:56 PM 68.0 °F 60.1 °F 76% 30.31 in 10.0 mi East 8.1 mph - N/A   Scattered Clouds
6:56 PM 64.9 °F 60.1 °F 84% 30.32 in 10.0 mi NE 4.6 mph - N/A   Scattered Clouds
7:56 PM 66.0 °F 61.0 °F 84% 30.31 in 10.0 mi Calm Calm - N/A   Mostly Cloudy
8:56 PM 64.0 °F 60.1 °F 87% 30.31 in 10.0 mi ENE 5.8 mph - N/A   Partly Cloudy
9:56 PM 63.0 °F 61.0 °F 93% 30.30 in 10.0 mi ENE 4.6 mph - N/A   Clear
10:56 PM 60.1 °F 59.0 °F 96% 30.30 in 9.0 mi Calm Calm - N/A   Scattered Clouds
11:56 PM 63.0 °F 61.0 °F 93% 30.28 in 10.0 mi ENE 3.5 mph - N/A   Mostly Cloudy